Location: downtown San Diego
(32.7310°N, 117.1990°W)
Time: 02:15:47
(UTC-07:00)

ERS-2 - Pass Details

Date: 12 July 2018
Orbit: 497 x 502 km, 98.5° (Epoch: 24 September)

Event Time Altitude Azimuth Distance (km) Brightness Sun altitude
Exits shadow 21:38:22 21° 197° (SSW) 1,163 3.7 -18.1°
Maximum altitude 21:40:28 43° 259° (W) 703 3.1 -18.4°
Drops below altitude 10° 21:43:58 10° 333° (NNW) 1,700 5.9 -19.0°
Sets 21:46:07 0° 340° (NNW) 2,587 6.9 -19.3°
